sat.trackr.live / text

‹ back to catalog

STARLINK-1583

NORAD 46064 · 2020-055AP

PAYLOAD ACTIVE UNKNOWN

§ Identity

Operator
Country
US
Launch date
2020-08-07
Launch site
AFETR
Launch vehicle
Mass (kg)
RCS (m²)

Purposes: comms

External: N2YO · Heavens-Above · Gunter

§ Orbital elements

Epoch: 2026-09-19T16:44:01.176576Z

Period
94.01 min
Inclination
53.1576°
Eccentricity
0.0001261
Mean motion
15.31701976 rev/d
Perigee alt
469.9 km
Apogee alt
471.6 km
Semi-major
6,848.9 km
B*
4.5069e-5
RAAN
291.5067°
Arg perigee
95.4459°
Mean anomaly
264.6686°
Rev number
33,878

§ Raw data

STARLINK-15831 46064U 20055AP  26262.69723584  .00001034  00000+0  45069-4 0  99992 46064  53.1576 291.5067 0001261  95.4459 264.6686 15.31701976338782

JSON: /api/v1/satellites/46064 · /tle

For live sub-satellite position, see the globe view (requires WebGL).

§ Visibility from observer

Set your observer location to see the next 7 days of passes ≥ 10°. The values pass through the URL so the page stays shareable.

No JS? Fill the form by hand. The geolocation button needs JavaScript.